Back to catalog

STARLINK-35538

AliveCommunicationsVLEO
NORAD 66475·PAYLOAD·🇺🇸 United States

Launched Nov 15, 2025 from Cape Canaveral Space Force Station

Loading…

Next Passes (next 24 hours)

TLE

FreshSource: CelesTrak SupGP

Epoch: Sep 14, 2026, 20:59 UTC

1 66475C 25262V   26257.87479167 -.00018681  00000+0 -67673-3 0  2570
2 66475  43.0024 308.0362 0001415 268.2265 194.1497 15.27583245    15

Track STARLINK-35538 in real time with AllMySat

Download on the App Store